Location: Citt� del Vaticano
(41.9033°N, 12.4533°E)
Time: 08:54:50
(UTC+00:00)

Daily predictions for brighter satellites

Satellite Brightness Start Highest point End
(mag) Time Altitude Azimuth Time Altitude Azimuth Time Altitude Azimuth
Cosmos 1025 Rocket 3.2 17:25:23 10° N 17:29:40 78° W 17:33:55 10° S
Okean 1 Rocket 3.0 17:27:56 10° S 17:32:14 68° E 17:36:35 10° NNE
Cosmos 2074 Rocket 4.2 17:28:08 10° N 17:34:23 81° W 17:40:35 10° S
COSMOS 2428 3.2 17:28:55 10° NNW 17:34:33 65° WSW 17:40:09 10° S
Cosmos 2227 Rocket 2.5 17:33:13 10° S 17:38:32 44° ESE 17:43:53 10° NE
SKYMED 2 4.2 17:34:57 10° N 17:39:15 62° WNW 17:43:31 10° SSW
H-2A R/B 3.8 17:38:43 10° E 17:41:02 13° ENE 17:43:23 10° NNE
Ariane Rocket 3.3 17:38:16 10° SE 17:43:04 46° ENE 17:47:55 10° N
ASTEX 1 4.1 17:39:11 10° NNE 17:43:30 30° E 17:47:48 10° SSE
HJ-1C 4.5 17:40:52 10° SE 17:43:44 26° ENE 17:46:37 10° NNE
USA 234 4.2 17:38:27 10° NE 17:44:39 46° NNW 17:50:51 10° W
NOSS 0 Rocket 4.0 17:38:40 10° NNW 17:44:55 87° ENE 17:51:10 10° SSE
Cosmos 2219 3.3 17:41:23 10° SSW 17:47:07 89° ESE 17:52:55 10° NNE
Cosmos 2297 Rocket 2.3 17:42:47 10° S 17:48:17 57° ESE 17:53:50 10° NNE
ISS -2.6 17:46:48 10° W 17:49:57 40° NNW 17:53:07 10° NE
SL-4 R/B 3.8 17:49:39 10° SSE 17:50:47 11° SE 17:51:14 11° ESE
CZ-2D R/B 3.3 17:47:09 10° SSE 17:50:52 58° ENE 17:54:38 10° N
Cosmos 2341 Rocket 4.2 17:46:56 10° N 17:52:59 50° ENE 17:58:58 10° SSE
Cosmos 407 Rocket 3.4 17:50:27 10° NNW 17:55:34 69° ENE 18:00:41 10° SSE
ERBS 3.5 17:53:41 10° NNW 17:56:42 29° NE 17:58:42 16° E
DMSP B5D1-3 4.5 17:51:52 10° NNE 17:56:59 80° ESE 18:02:05 10° S
Cosmos 389 Rocket 2.4 17:55:13 10° N 17:58:37 57° ENE 18:02:00 10° SSE
YAOGAN 1 3.3 17:55:51 10° S 18:00:05 56° W 18:04:22 10° NNW
Cosmos 1766 4.4 17:57:23 10° SE 18:00:25 22° E 18:03:27 10° NE
Cosmos 2056 Rocket 3.5 17:55:13 10° SSW 18:00:37 77° ESE 18:06:02 10° NNE
SJ-6B 4.2 18:00:10 16° ESE 18:02:10 22° ENE 18:05:19 10° NNE
In-Cosmos 22 4.2 17:57:16 10° N 18:02:37 55° ENE 18:08:02 10° SSE
Cosmos 2154 Rocket 4.2 17:59:02 10° N 18:05:14 79° W 18:11:27 10° S
Cosmos 1140 Rocket 3.5 18:00:58 10° NNW 18:06:04 57° ENE 18:11:06 10° SE
ATLAS 2AS CENTAUR R/B 3.9 17:59:06 10° NW 18:06:14 46° WSW 18:12:44 10° S
SL-8 Rocket 4.2 18:00:55 10° N 18:06:49 45° ENE 18:12:40 10° SSE
Cosmos 2084 Rocket 4.0 18:02:39 10° SW 18:07:04 62° NW 18:11:30 10° NNE
GENESIS II 4.2 18:03:16 10° NNW 18:07:23 75° ENE 18:10:51 14° SE
Cosmos 1892 Rocket 3.7 18:03:10 10° N 18:07:31 53° E 18:11:48 10° SSE
GP-B 3.6 18:05:06 10° N 18:09:30 63° W 18:13:53 10° SSW
Cosmos 405 Rocket 2.5 18:05:59 10° S 18:09:38 68° E 18:13:21 10° NNE
Cosmos 1624 Rocket 4.1 18:06:17 10° SSW 18:11:28 83° WNW 18:16:42 10° NNE
DELTA 2 R/B (1) 3.7 18:05:59 10° WSW 18:11:34 69° S 18:15:28 20° E
Resurs 01 Rocket 3.6 18:12:35 13° ENE 18:12:35 13° ENE 18:14:25 10° NE
CZ-4 R/B 3.6 18:09:41 10° SSW 18:13:03 27° W 18:16:29 10° NW
Cosmos 1674 3.7 18:10:28 10° NNE 18:13:35 25° ENE 18:14:12 24° E
Lacrosse 5 2.7 18:12:08 10° S 18:16:28 29° SE 18:18:41 21° E
FREGAT/IRIS 2.6 18:18:02 32° SE 18:18:56 47° ENE 18:21:40 10° N
Cosmos 1954 Rocket 4.1 18:14:49 10° NNW 18:19:58 56° ENE 18:23:55 16° SE
SAR-Lupe-2 3.5 18:18:36 10° NNE 18:22:10 61° ESE 18:25:40 10° S
Cosmos 2237 Rocket 2.5 18:16:40 10° NNW 18:22:21 70° WSW 18:28:00 10° SSE
Lacrosse 5 rocket 2.5 18:19:44 10° WSW 18:23:07 35° NW 18:26:37 10° NNE
MOS 1 4.2 18:23:18 10° SSE 18:28:59 77° ENE 18:34:41 10° NNW
Cosmos 1437 Rocket 2.9 18:26:37 10° N 18:30:16 46° ENE 18:31:14 37° ESE
Cosmos 1980 4.5 18:27:30 10° NNW 18:32:58 52° WSW 18:38:25 10° S
BREEZE M DEB (TANK) 3.7 18:32:21 10° NW 18:34:27 23° NNE 18:35:55 19° NE
Cosmos 1939 Rocket 3.9 18:31:55 10° S 18:35:36 44° W 18:39:20 10° NNW
CZ-2C R/B 3.5 18:31:33 10° NNE 18:35:58 69° ESE 18:40:22 10° S
Okean 1-7 Rocket 3.9 18:33:11 10° NNW 18:37:38 69° W 18:42:06 10° S
PSLV R/B 2.9 18:36:47 10° W 18:39:09 63° WSW 18:39:09 63° WSW
Meteor 1-24 Rocket 3.9 18:36:11 10° N 18:41:59 58° ENE 18:45:36 24° SSE
ATLAS CENTAUR R/B 2.4 18:37:46 10° S 18:41:43 35° SE 18:41:43 35° SE
Cosmos 1455 Rocket 3.2 18:38:10 10° SSW 18:42:36 78° W 18:47:05 10° N
Cosmos 1544 Rocket 3.5 18:38:17 10° S 18:42:45 85° E 18:47:14 10° N
GEOS 3 Rocket 3.7 18:41:42 34° ESE 18:43:41 57° NE 18:48:42 10° NNW
SJ-11-01 4.2 18:40:50 16° SSE 18:44:40 86° ENE 18:49:25 10° NNW
Cosmos 1805 3.1 18:41:01 10° S 18:44:53 74° E 18:48:47 10° NNE
Meteor 1-4 Rocket 3.8 18:45:36 10° NNW 18:48:53 38° W 18:52:06 10° SSW
SL-8 R/B 4.3 18:44:56 10° WNW 18:49:33 46° NNE 18:50:59 35° ENE
SPOT 3 Rocket 3.4 18:48:41 27° SSE 18:51:29 75° ENE 18:56:39 10° N
SL-08 RB Rocket 4.4 18:52:44 37° ENE 18:52:44 37° ENE 18:56:49 10° N
Cosmos 1452 Rocket 3.4 18:49:21 10° SSW 18:54:34 85° ESE 18:59:51 10° NNE
KORONAS-FOTON 3.6 18:52:10 10° N 18:55:50 74° ENE 18:55:50 74° ENE
Cosmos 676 Rocket 4.3 18:50:51 10° NNW 18:56:03 64° WSW 18:59:46 19° S
SL-16 R/B 2.1 18:51:14 10° NNW 18:56:57 86° ENE 18:59:29 35° SSE
USA 186 2.4 19:01:15 51° SW 19:01:41 57° W 19:05:03 10° NNW
ADEOS Rocket 3.5 18:54:38 10° NNE 19:02:13 67° ESE 19:09:57 10° S
ARGOS 3.0 19:01:55 46° SE 19:03:27 68° ENE 19:08:49 10° N
Cosmos 1626 Rocket 3.3 18:59:39 10° N 19:03:59 75° E 19:04:04 75° E
CZ-2C R/B 3.4 19:05:49 47° ENE 19:06:01 47° ENE 19:11:21 10° N
Cosmos 2082 4.4 19:03:43 10° SW 19:09:19 55° WNW 19:14:57 10° NNE
MetOp-A 4.2 19:13:38 55° ENE 19:13:38 55° ENE 19:18:49 10° N
H-2A R/B 1.9 19:18:44 58° S 19:19:44 80° WSW 19:24:49 10° NNW
Cosmos 2227 Rocket 4.1 19:17:53 10° WSW 19:22:45 29° NW 19:27:38 10° N
RESURS DK-1 3.2 19:22:00 10° NNW 19:24:58 46° NNW 19:24:58 46° NNW
Cosmos 1602 Rocket 3.9 19:22:33 10° N 19:26:09 59° NNW 19:26:09 59° NNW
ISS -1.1 19:25:09 10° NW 19:26:56 16° NNW 19:26:56 16° NNW
Resurs 1-3 4.1 19:29:47 54° NNW 19:29:47 54° NNW 19:33:13 10° NNW
Cosmos 1850 Rocket 3.9 19:24:12 10° NNW 19:29:24 85° WSW 19:29:24 85° WSW
SL-4 R/B 4.3 19:26:11 10° SW 19:26:54 15° SW 19:26:54 15° SW
Cosmos 2297 Rocket 4.4 19:28:14 10° WSW 19:32:43 24° NW 19:37:12 10° N
Nadezhda 3 Rocket 3.8 19:36:24 79° SE 19:36:40 81° E 19:42:54 10° N
BREEZE-M DEB (TANK) 4.4 19:40:12 10° WNW 19:46:44 40° WSW 19:46:44 40° WSW
Resurs 01 Rocket 3.0 19:50:10 36° NNW 19:50:10 36° NNW 19:52:53 10° NNW
Cosmos 1821 Rocket 3.9 19:46:01 10° N 19:51:36 75° N 19:51:36 75° N
Cosmos 1943 4.1 19:49:20 10° NNW 19:53:14 40° N 19:53:14 40° N
DELTA 2 R/B (1) 4.5 19:52:19 10° W 19:56:13 42° WSW 19:56:13 42° WSW
Lacrosse 5 2.9 19:54:16 10° WSW 19:57:58 41° W 19:57:58 41° W
Lacrosse 5 rocket 4.2 20:02:08 10° NNW 20:03:07 11° NNW 20:03:07 11° NNW
ATLAS CENTAUR R/B 4.1 20:16:46 10° WSW 20:18:08 17° WSW 20:18:08 17° WSW
CZ-4C R/B 4.2 20:24:04 10° NNW 20:29:11 27° NNE 20:29:11 27° NNE
